Location: St. Louis
(38.6270°N, 90.1994°W)
Time: 19:28:21
(UTC-06:00)

Vanguard 3 - Pass Details

Date: 05 December 2021
Orbit: 508 x 3260 km, 33.3° (Epoch: 19 January)

Event Time Altitude Azimuth Distance (km) Brightness Sun altitude
Exits shadow 03:26:05 49° 210° (SSW) 3,868 10.2 -41.8°
Maximum altitude 03:32:11 62° 160° (SSE) 3,475 10.1 -40.6°
Drops below altitude 10° 03:49:04 10° 86° (E) 5,314 12.0 -37.3°
Sets 03:52:37 0° 83° (E) 6,037 12.6 -36.6°
